Other Surface Observations
Issued by NWS

Home | Current Version | Previous Version | Text Only | Print | Product List | Glossary On
Versions: 1 2 3 4 5 6 7 8 9 10 11 12 13 14 15 16 17 18 19 20 21 22 23 24 25 26 27 28 29 30 31 32 33 34 35 36 37 38 39 40 41 42 43 44 45 46 47 48 49 50
263
SXUS52 KTAE 261118
OSOTAE
OSOTAE
North Florida/South Alabama/Southwest Georgia Weather Roundup
National Weather Service Tallahassee Florida
700 AM EDT THU APR 26 2018

Note: "fair" indicates few or no clouds below 12,000 feet with no
significant weather and/or obstructions to visibility.

!FLZ017-115-028-034-025-261200
...North Florida...

CITY           SKY/WX    TMP DP  RH WIND       PRES   REMARKS
TALLAHASSEE    MOCLDY    52  49  89 CALM      29.89R
APALACHICOLA   FAIR      55  54  96 CALM      29.89R
PERRY          FAIR      55  54  97 CALM      29.90R
CROSS CITY     FAIR      54 N/A N/A CALM      29.90R
JACKSONVILLE   FAIR      57  57 100 CALM      29.88S
$$

!FLZ112-006-005-002-011-261200
...Florida Panhandle...

CITY           SKY/WX    TMP DP  RH WIND       PRES   REMARKS
MARIANNA       FAIR      56  53  90 CALM      29.88S
BONIFAY        FAIR      54  54 100 CALM      29.88F
PANAMA CITY NW FAIR      55  53  93 E3        29.88S
TYNDALL AFB    FAIR      56  54  95 CALM      29.90R
TYND DRONE APT FAIR      55  55  97 CALM      29.90R
DE FUNIAK SPR  FAIR      54  53  95 CALM      29.88S
EGLIN AFB      MOCLDY    57  53  87 CALM      29.86S
DESTIN         FAIR      71  59  65 S7        29.87S
HURLBURT       CLEAR     66  61  84 S10       29.86S
CRESTVIEW      FAIR      50  49  96 CALM      29.88R
PENSACOLA      FAIR      66  61  84 S7        29.86S
$$

!ALZ063-066-261200
...South Alabama...

CITY           SKY/WX    TMP DP  RH WIND       PRES   REMARKS
DOTHAN         FAIR      56  53  90 S7        29.90F
OZARK CAIRNS   FAIR      55  53  95 S3        29.87S
FT RUCKER HELI FAIR      52  52  99 CALM      29.86S
RUCKER HELI 3  FAIR      55  54  94 CALM      29.87R
RUCKER HELI 2  FAIR      51  51  98 CALM      29.86S
FLORALA APT    FAIR      57  52  83 SW5       29.89R
ANDALUSIA      FAIR      56  52  86 CALM      29.86R
TROY           FAIR      52  51  97 CALM      29.87R
EUFALA         CLOUDY    52  51  97 CALM      29.87R FOG
MOBILE         MOCLDY    66  62  87 SW7       29.87R
$$

!GAZ120>161-261200
...Southwest and South Central Georgia...

CITY           SKY/WX    TMP DP  RH WIND       PRES   REMARKS
THOMASVILLE    FAIR     N/A N/A N/A CALM      29.90R
BAINBRIDGE       N/A     55  55 100 CALM      29.90R
MOODY AFB      FAIR      55  54  98 CALM      29.87S
VALDOSTA       FAIR      50  49  96 CALM      29.89R
MOULTRIE       FAIR      54  52  94 CALM      29.90R
BLAKELY        FAIR      52  50  93 CALM      29.89S
ALBANY         FAIR      53  51  93 CALM      29.90S
TIFTON         FAIR     N/A N/A N/A CALM      29.88S
FITZGERALD     FAIR      53  53 100 CALM      29.90R FOG
CORDELE        FAIR      55  53  92 CALM      29.89S
AMERICUS       FAIR      50  46  87 CALM      29.90S
HOMERVILLE     FAIR      50  50 100 CALM      29.89S
$$

!GMZ750-755-770-775-261200
...Coastal and Buoy Obs...

STATION/POSITION TIME  TEMP    WIND        PRES    VSBY  WAVE
                       AIR SEA DIR/SP/G                  HT/PER
                 (UTC) (F)     (DEG/KT/KT) (MB)    (MI)  (FT/S)
KEATON BEACH     1100   59      60/  2/  3 1012.4R
CEDAR KEY        1100   65     360/  4/  6 1012.6R
C TOWER          1100   67     130/  4/  5 1012.8R
APALACHICOLA BUO NOT AVBL
PANAMA CITY BUOY 1050   70 74  220/  4/  4 1012.1F         1/ 4
MOBILE BUOY      1100      72  260/ 14/ 17 1012.6
ORANGE BCH AL BU 1100   70     190/  8/ 10 1011.7
$$




USA.gov is the U.S. government's official web portal to all federal, state and local government web resources and services.